Location: Brookfield
(35.1043°N, 89.8798°W)
Time: 05:25:30
(UTC+00:00)

Daily predictions for brighter satellites

Satellite Brightness Start Highest point End
(mag) Time Altitude Azimuth Time Altitude Azimuth Time Altitude Azimuth
PSLV R/B 4.1 00:00:15 10° SE 00:03:48 30° ENE 00:07:21 10° N
Okean 2 Rocket 3.8 00:02:22 10° SSE 00:06:14 31° E 00:08:00 23° NE
RESURS DK-1 3.6 00:03:30 10° N 00:05:59 22° NE 00:05:59 22° NE
BREEZE M DEB (TANK) 4.0 00:06:50 10° S 00:09:11 17° SE 00:09:18 16° SE
Nadezhda 4 Rocket 4.5 00:05:34 10° NNE 00:11:17 36° ENE 00:16:54 10° SE
Geosat FO 3.9 00:09:17 10° SSE 00:12:11 86° ENE 00:15:04 10° NNW
ISS -1.9 00:09:39 10° W 00:12:27 24° NNW 00:14:17 16° NNE
CZ-2D R/B 3.3 00:09:39 10° SSE 00:13:39 61° ENE 00:17:45 10° N
SJ 16-02 1.7 00:09:38 10° S 00:13:39 40° ESE 00:15:05 30° ENE
Spot 4 Rocket 4.0 00:10:54 10° SSE 00:15:52 56° ENE 00:20:51 10° N
Helios 1A Rocket 2.5 00:17:58 12° N 00:21:00 74° WNW 00:24:22 10° SSW
USA 215 3.6 00:17:52 10° SSE 00:24:20 66° SW 00:30:51 10° NW
ATLAS 5 CENTAUR R/B 1.9 00:20:02 10° NNW 00:24:52 85° ENE 00:30:50 10° SSE
Cosmos 1833 Rocket 3.7 00:23:41 10° NNW 00:29:05 48° WSW 00:34:28 10° S
Cosmos 371 Rocket 3.4 00:26:16 10° S 00:30:52 49° ESE 00:31:38 44° ENE
Aureole 3 Rocket 3.8 00:28:01 10° SSW 00:31:05 36° W 00:33:55 10° NNW
MOS 1 Rocket 3.9 00:27:10 10° S 00:31:18 52° W 00:35:33 10° NNW
Cosmos 1656 Rocket 4.2 00:29:14 10° SSE 00:33:51 35° ESE 00:33:51 35° ESE
Cosmos 2058 2.6 00:30:39 10° N 00:34:37 72° E 00:38:34 10° SSE
Cosmos 304 Rocket 3.6 00:35:03 10° S 00:39:42 65° ESE 00:40:27 55° ENE
NOAA 6 3.9 00:36:00 10° SSE 00:41:03 62° ENE 00:46:09 10° N
Cosmos 1763 Rocket 3.5 00:38:02 10° NNW 00:43:14 79° WSW 00:48:19 10° SSE
Cosmos 540 Rocket 3.3 00:40:51 10° NNW 00:46:00 89° WSW 00:51:05 10° SSE
Cosmos 1464 Rocket 4.2 00:41:42 10° SSW 00:48:00 73° W 00:54:17 10° N
Cosmos 2151 Rocket 4.0 00:43:52 10° SSW 00:48:16 61° W 00:52:22 12° N
OAO 3 Rocket 2.9 00:44:32 10° W 00:49:10 85° S 00:49:21 82° ESE
Cosmos 1400 Rocket 2.9 00:45:24 10° SSW 00:49:11 67° W 00:49:28 64° NW
Cosmos 2251 Rocket 4.3 00:45:33 10° SW 00:50:38 50° WNW 00:55:23 12° N
SL-19 R/B 4.2 00:49:09 10° S 00:54:25 73° WSW 00:59:37 10° NNW
Sich 1 Rocket 3.6 00:50:41 10° S 00:55:11 83° W 00:55:45 67° NNW
Cosmos 2034 Rocket 3.9 00:53:06 10° S 00:59:16 90° E 01:05:31 10° N
Geosat 4.3 01:00:32 53° N 01:00:32 53° N 01:04:29 10° NNW
USA 281 4.2 01:07:16 30° NNE 01:07:16 30° NNE 01:10:57 10° N
Meteor 2-1 Rocket 4.2 00:59:44 10° S 01:05:34 86° E 01:07:23 47° NNE
Okean 1 Rocket 3.5 01:02:22 10° SSW 01:06:42 60° W 01:06:42 60° W
Cosmos 2082 Rocket 3.0 01:24:19 10° NNW 01:28:04 44° NW 01:28:04 44° NW
Cosmos 2344 4.5 01:39:46 10° NNW 01:45:44 45° NNE 01:45:44 45° NNE
SJ 16-02 4.1 01:49:32 10° W 01:51:42 14° WNW 01:51:42 14° WNW
SL-16 R/B 4.4 09:30:47 10° SSE 09:32:31 20° SSE 09:32:31 20° SSE
SL-16 R/B 4.3 09:36:38 10° SSE 09:41:00 23° E 09:45:24 10° NE
Cosmos 1802 Rocket 4.0 10:06:58 33° N 10:10:03 79° E 10:16:14 10° S
SJ 16-02 3.5 10:18:05 13° NNE 10:20:57 24° ENE 10:24:24 10° ESE
Cosmos 2237 Rocket 4.0 10:24:59 18° N 10:24:59 18° N 10:26:29 10° N
Cosmos 2056 Rocket 3.6 10:21:55 33° S 10:24:25 80° ESE 10:29:49 10° NNE
Cosmos 2278 Rocket 2.4 10:25:22 55° SSW 10:25:22 55° SSW 10:30:00 10° S
Cosmos 1943 Rocket 2.6 10:28:04 43° SSW 10:28:04 43° SSW 10:31:57 10° S
USA 229 DEB 3.7 10:23:41 14° SSW 10:28:33 61° ESE 10:34:42 10° NE
USA 229 3.8 10:23:47 13° SSW 10:28:46 60° ESE 10:34:54 10° NE
Cosmos 2016 Rocket 3.9 10:26:29 10° N 10:32:51 81° W 10:39:07 10° S
Cosmos 407 Rocket 3.6 10:33:46 54° SSW 10:33:46 54° SSW 10:37:58 10° S
Cosmos 1932 4.4 10:36:40 35° NNW 10:39:40 83° WSW 10:46:09 10° SSE
USA 267 3.6 10:33:54 10° NNE 10:39:58 43° NW 10:40:53 41° WNW
Cosmos 1782 Rocket 3.3 10:42:02 73° NW 10:42:23 81° W 10:46:41 10° S
IRS-1D 3.9 10:38:50 10° NNE 10:43:42 60° ESE 10:48:33 10° S
Cosmos 1371 Rocket 3.9 10:41:01 27° SSW 10:43:55 70° WNW 10:49:13 10° NNE
Iridium 4 Rocket 3.1 10:47:39 55° SW 10:47:39 55° SW 10:51:06 10° S
ATLAS 3B R/B 2.9 10:41:57 10° SSW 10:49:18 90° WNW 10:57:09 10° NNE
FengYun 1-2 T 4.1 10:44:47 10° NNE 10:50:24 84° WNW 10:56:02 10° SSW
Cosmos 1300 Rocket 3.7 10:51:06 49° SW 10:51:06 49° SW 10:54:35 10° S
Cosmos 1869 4.1 10:47:38 13° N 10:50:30 44° E 10:53:50 10° SSE
Cosmos 371 Rocket 4.2 10:45:55 10° N 10:50:36 47° ENE 10:55:14 10° SE
Delta 142 4.5 10:53:05 29° SSW 10:54:02 33° S 10:57:43 10° ESE
Chandra Rocket (1) 3.6 10:54:13 28° SW 10:56:35 46° S 11:09:53 10° ESE
Cosmos 1812 4.2 10:54:17 10° NNE 10:56:47 26° E 10:59:17 10° SE
Cosmos 304 Rocket 4.3 10:53:32 10° N 10:58:14 59° ENE 11:02:55 10° SSE
CZ-4 R/B 3.9 10:54:13 10° NNE 10:59:01 78° ESE 11:03:42 10° S
Cosmos 1378 Rocket 4.0 10:59:54 10° S 11:04:06 62° E 11:08:19 10° NNE
Cosmos 2242 Rocket 3.4 11:03:40 10° SSW 11:08:01 69° W 11:12:24 10° N
ATLAS CENTAUR Rocket 4.3 11:08:14 10° SSW 11:11:14 19° SE 11:15:46 10° E
NOAA 12 4.0 11:06:24 10° NNE 11:11:45 87° WNW 11:17:03 10° SSW
Cosmos 1656 Rocket 3.8 11:06:38 10° NNW 11:12:20 76° ENE 11:17:58 10° SSE
USA 234 4.0 11:06:32 10° ESE 11:12:45 48° NE 11:18:59 10° NNW
In-Cosmos 22 Rocket 4.2 11:08:20 10° SSW 11:14:08 73° W 11:19:57 10° N
CZ-3 R/B 2.8 11:03:33 14° WSW 11:17:02 55° S 11:22:35 10° ESE
Cosmos 2251 Rocket 3.9 11:18:51 16° NW 11:22:42 40° W 11:27:40 10° S
SL-16 R/B 2.6 11:19:27 10° SW 11:24:46 41° WNW 11:30:07 10° N
Cosmos 2061 Rocket 4.2 11:20:09 10° NNW 11:25:59 45° W 11:31:49 10° SSW
H-2A R/B 3.3 11:31:29 13° SW 11:33:27 28° S 11:39:09 10° ESE
Cosmos 1452 Rocket 3.5 11:28:16 10° SSW 11:33:29 88° ESE 11:38:44 10° NNE
Aureole 3 Rocket 4.2 11:30:44 10° NNW 11:36:31 72° W 11:44:30 10° S
Cosmos 1331 Rocket 4.1 11:42:02 10° SSW 11:47:08 52° WNW 11:52:15 10° N
Cosmos 1464 Rocket 4.1 11:41:26 10° N 11:47:34 81° E 11:53:41 10° S
SKYMED 2 4.2 11:51:17 10° SSW 11:55:16 36° W 11:59:17 10° NNW
Hubble Space Telescope 3.5 11:54:20 10° S 11:55:39 11° SSE 11:56:57 10° SE
